Regional Weather Roundup
Issued by NWS

Home | Current Version | Previous Version | Graphics & Text | Print | Product List | Glossary On
Versions: 1 2 3 4 5 6 7 8 9 10 11 12 13 14 15 16 17 18 19 20 21 22 23 24 25 26 27 28
000
ASUS45 KGTF 041210
RWRMT
MONTANA HOURLY WEATHER ROUNDUP
NATIONAL WEATHER SERVICE GREAT FALLS MT
600 AM MDT MON MAY 04 2015

NOTE: "FAIR" INDICATES FEW OR NO CLOUDS BELOW 12000 FEET WITH NO
SIGNIFICANT WEATHER AND/OR OBSTRUCTIONS TO VISIBILITY.

MTZ001>007-043-041300-
WEST OF THE DIVIDE

CITY           SKY/WX    TMP DP  RH WIND       PRES   REMARKS
KALISPELL      SUNNY     31  26  82 W3        29.92S
MISSOULA       CLEAR     34  23  64 CALM      29.96R
BUTTE          CLEAR     37  28  70 E3        29.98S
DEER LODGE       N/A     30  23  74 CALM      30.00R
EUREKA           N/A     30  25  80 CALM      29.97S
HAMILTON         N/A     36  27  69 S2        29.94S
LIBBY            N/A     28  25  86 CALM      29.96R
$$

MTZ008-052>055-041300-
SOUTHWEST MONTANA

CITY           SKY/WX    TMP DP  RH WIND       PRES   REMARKS
BOZEMAN        CLEAR     37  31  78 S7        29.97S WCI  32
DILLON         PTCLDY    40  29  64 S6        29.97F
$$

MTZ009-010-012-014-046-048-049-054-041300-
EAST SLOPES AND CENTRAL MONTANA

CITY           SKY/WX    TMP DP  RH WIND       PRES   REMARKS
CUT BANK       CLEAR     27  22  81 NW6       29.95S WCI  20
GREAT FALLS    CLEAR     36  27  69 CALM      29.94S
MALMSTROM AFB  CLEAR     40  31  71 N3        29.95S
HELENA         CLEAR     42  27  55 CALM      29.96S
$$

MTZ011-013-016-021-045-047-050-051-041300-
NORTH CENTRAL MONTANA

CITY           SKY/WX    TMP DP  RH WIND       PRES   REMARKS
HAVRE          CLEAR     38  28  67 E12       29.96S WCI  30
LEWISTOWN      CLEAR     40  31  70 SE5       29.98S
CHINOOK          N/A     39  28  65 E12G17    30.00S WCI  32
FORT BENTON      N/A     43  30  61 CALM      29.97R
$$

MTZ017>020-022>042-056>058-061-062-041300-
EASTERN PLAINS

CITY           SKY/WX    TMP DP  RH WIND       PRES   REMARKS
BAKER          CLOUDY    39  29  67 E10       30.13R
BILLINGS       PTCLDY    43  35  73 SW5       29.99S
GLASGOW        CLEAR     39  23  52 E13       30.06F WCI  31
JORDAN           N/A     34  26  72 E3        30.04F
LIVINGSTON     PTCLDY    35  31  85 NW3       30.01S
MILES CITY     MOCLDY    46  30  53 NE7       30.06R
SIDNEY         CLEAR     36  25  64 CALM      30.13R
WOLF POINT     CLEAR     33  24  69 E6        30.11R WCI  28
BIG TIMBER       N/A     37  34  87 SW3       30.02S
FORSYTH          N/A     43  34  70 E5        30.03S
PLENTYWOOD       N/A     36  21  55 CALM      30.14R
POPLAR           N/A     36  25  64 N7        30.13R WCI  30
$$

REGIONAL REPORTS...DAKOTAS

CITY           SKY/WX    TMP DP  RH WIND       PRES   REMARKS
WILLISTON      CLEAR     32  24  72 N3        30.14R
MINOT          CLEAR     35  26  69 S5        30.15R
DICKINSON      CLOUDY    33  25  72 SE7       30.15R WCI  27
BEACH          PTSUNNY   34  28  80 SE5       30.15R
CROSBY         FAIR      28  28 100 CALM      30.16R
WATFORD CITY   FAIR      32  25  74 CALM      30.13R
BISMARCK       CLOUDY    37  28  70 CALM      30.19R
GRAND FORKS    PTCLDY    34  30  85 NW3       30.18R
FARGO          MOCLDY    40  27  59 N3        30.17R
BUFFALO SD       N/A     45  31  58 SE12      30.08R
RAPID CITY     LGT RAIN  48  38  68 SW6       30.17R
$$

REGIONAL REPORTS...WYOMING/IDAHO/WASHINGTON

CITY           SKY/WX    TMP DP  RH WIND       PRES   REMARKS
GILLETTE       CLOUDY    47  39  74 SE20G28   30.07S
SHERIDAN       MOCLDY    50  43  77 SE17      30.00R
BUFFALO WY     CLOUDY    48  43  82 SE8       30.06S
CODY           CLEAR     43  36  75 S5        30.01S
YELLOWSTONE LA   N/A     27  25  92 CALM      30.13R
IDAHO FALLS    PTCLDY    41  38  89 N6        29.97R
SALMON           N/A     37  32  81 CALM      29.96R
BOISE          CLEAR     52  31  44 CALM      29.85S
SPOKANE        CLEAR     45  31  58 E5        29.88R
$$

REGIONAL REPORTS...ALBERTA

CITY           SKY/WX    TMP DP  RH WIND       PRES   REMARKS
EDMONTON       CLOUDY    37  34  87 NE5       30.00S
CALGARY        PTCLDY    32  25  74 S2        29.95F
LETHBRIDGE     CLEAR     27  25  93 SW8       29.95S WCI  18
MEDICINE HAT   CLEAR     41  28  60 NE10      29.96F
$$

REGIONAL REPORTS...SASKATCHEWAN

CITY           SKY/WX    TMP DP  RH WIND       PRES   REMARKS
SWIFT CURRENT  CLEAR     34  28  80 SE10      30.08S WCI  26
REGINA         PTCLDY    30  28  93 SE7       30.14R WCI  23
SASKATOON      PTCLDY    28  28 100 CALM      30.12S
$$



USA.gov is the U.S. government's official web portal to all federal, state and local government web resources and services.